Tracking 18856 objects as of 12-Dec-2017
HD Live streaming from Space Station
objects crossing your sky now

ARIANE 5 DEB (SYLDA)

Track ARIANE 5 DEB (SYLDA) now!


NORAD ID: 28914
Int'l Code: 2005-049D
Perigee: 646.4 km
Apogee: 36,039.6 km
Inclination: 4.4 °
Period: 644.4 minutes
Semi major axis: 24713 km
RCS: 22.4158 m2 (large)
Launch date: December 21, 2005
Source: France (FR)
Launch site: FRENCH GUIANA (FRGUI)

Note: This is SATELLITE DEBRIS
aabbcc
Your satellite tracking list
Your tracking list is empty




NASA's NSSDC Master Catalog

Two Line Element Set (TLE):
1 28914U 05049D   17345.53003288 -.00000097 +00000-0 +97698-3 0  9990
2 28914 004.4143 048.8984 7160575 166.6249 219.3788 02.23454342097720
Source of the keplerian elements: AFSPC